This demonstration page uses our WeatherBlox Daily Observations layout. Learn more.

Left ArrowRight Arrow

Hourly Observations for January 25, 2020

Temp ( °F °C ) Dew Point ( °F °C ) Humidity (%) Winds ( mph kmh ) Pressure ( in mb ) Visibility ( mi km ) Precip ( " mm )
12:38 am 00:38 Cloudy with Light Rain 39 3.9 36 2.2 89 89 WSW 6 9 29.91 1013 10 16 0.00 0.00
12:53 am 00:53 Cloudy with Light Rain 39 3.9 37 2.8 93 93 SW 5 7 29.89 1012 10 16 0.00 0.00
1:53 am 01:53 Cloudy with Light Rain 38 3.3 37 2.8 97 97 SW 3 6 29.88 1012 10 16 0.00 0.00
2:51 am 02:51 Cloudy 37 3 36 2 93 93 SW 3 6 29.92 1013 10 16 0.01 0.25
2:53 am 02:53 Cloudy 38 3.3 36 2.2 93 93 SW 3 6 29.89 1012 10 16 0.01 0.25
3:25 am 03:25 Cloudy 38 3.3 36 2.2 93 93 SW 3 6 29.92 1013 10 16 0.00 0.00
3:32 am 03:32 Cloudy 38 3.3 36 2.2 93 93 VRB 3 6 29.92 1013 10 16 0.00 0.00
3:53 am 03:53 Cloudy 38 3.3 36 2.2 93 93 SW 5 7 29.90 1013 10 16 0.00 0.00
4:24 am 04:24 Cloudy 38 3.3 36 2.2 93 93 SW 5 7 29.92 1013 10 16 0.00 0.00
4:53 am 04:53 Cloudy 38 3.3 36 2.2 93 93 WSW 7 11 29.90 1013 10 16 0.00 0.00
5:20 am 05:20 Cloudy 38 3.3 36 2.2 93 93 SW 6 9 29.93 1013 10 16 0.00 0.00
5:53 am 05:53 Cloudy 37 2.8 36 2.2 96 96 SW 7 11 29.92 1013 8 13 0.00 0.00
6:19 am 06:19 Cloudy 37 2.8 36 2.2 96 96 WSW 8 13 29.95 1014 9 14 0.00 0.00
6:53 am 06:53 Cloudy 37 2.8 34 1.1 89 89 WSW 9 15 29.94 1014 10 16 0.00 0.00
7:53 am 07:53 Cloudy 37 2.8 34 1.1 89 89 WSW 9 15 29.96 1015 10 16 0.00 0.00
8:53 am 08:53 Cloudy 36 2.2 33 0.6 89 89 SW 7 11 29.97 1015 10 16 0.00 0.00
9:53 am 09:53 Cloudy 36 2.2 33 0.6 89 89 WSW 9 15 29.98 1015 10 16 0.00 0.00
10:53 am 10:53 Cloudy 36 2.2 33 0.6 89 89 SW 10 17 30.00 1016 8 13 0.00 0.00
11:53 am 11:53 Cloudy 37 2.8 34 1.1 89 89 SW 7 11 29.99 1016 10 16 0.00 0.00
12:27 pm 12:27 Cloudy with Light Rain 37 2.8 33 0.6 86 86 SW 10 17 30.00 1016 10 16 0.00 0.00
12:53 pm 12:53 Cloudy with Light Rain 37 2.8 32 0 82 82 SW 10 17 29.98 1015 10 16 0.01 0.25
1:16 pm 13:16 Cloudy with Light Rain 37 2.8 32 0 82 82 SW 10 17 29.99 1015 10 16 0.00 0.00
1:48 pm 13:48 Cloudy 37 3 32 0 81 81 SW 10 17 29.99 1015 10 16 0.00 0.00
1:53 pm 13:53 Cloudy 37 2.8 32 0 82 82 SW 8 13 29.97 1015 10 16 0.00 0.00
2:18 pm 14:18 Cloudy with Light Rain 37 2.8 32 0 82 82 SW 10 17 29.98 1015 10 16 0.00 0.00
2:39 pm 14:39 Cloudy with Light Rain 37 2.8 32 0 82 82 WSW 13 20 29.98 1015 8 13 0.00 0.00
2:53 pm 14:53 Cloudy with Light Rain 36 2.2 32 0 86 86 WSW 10 17 29.97 1015 8 13 0.00 0.00
3:04 pm 15:04 Cloudy 36 2.2 33 0.6 89 89 SW 7 11 29.98 1015 8 13 0.00 0.00
3:53 pm 15:53 Cloudy 36 2.2 32 0 86 86 SW 10 17 29.96 1015 8 13 0.00 0.00
3:59 pm 15:59 Cloudy 36 2.2 32 0 86 86 SW 9 15 29.98 1015 10 16 0.00 0.00
4:09 pm 16:09 Cloudy 36 2.2 32 0 86 86 SW 9 15 29.98 1015 10 16 0.00 0.00
4:18 pm 16:18 Cloudy 36 2.2 32 0 86 86 SW 9 15 29.98 1015 9 14 0.00 0.00
4:53 pm 16:53 Cloudy with Light Rain 35 1.7 32 0 89 89 WSW 9 15 29.97 1015 6 10 0.00 0.00
5:53 pm 17:53 Cloudy with Light Rain 35 1.7 32 0 89 89 WSW 12 19 29.98 1015 5 8 0.01 0.25
6:53 pm 18:53 Cloudy with Light Rain 34 1.1 32 0 92 92 WSW 13 20 30.00 1016 6 10 0.01 0.25
7:53 pm 19:53 Cloudy with Light Wintry Mix 34 1.1 33 0.6 97 97 WSW 8 13 30.01 1016 3 4 0.01 0.25
8:07 pm 20:07 Cloudy with Light Rain 34 1.1 33 0.6 97 97 SW 6 9 30.02 1017 3 5 0.00 0.00
8:53 pm 20:53 Cloudy with Light Wintry Mix 34 1.1 32 0 92 92 WSW 10 17 30.01 1016 6 10 0.00 0.00
9:01 pm 21:01 Cloudy 34 1.1 32 0 92 92 WSW 10 17 30.02 1017 7 11 0.00 0.00
9:27 pm 21:27 Cloudy 33 0.6 31 -0.6 92 92 WSW 12 19 30.02 1017 8 13 0.00 0.00
9:53 pm 21:53 Cloudy 33 0.6 30 -1.1 89 89 WSW 13 20 30.01 1016 10 16 0.00 0.00
10:50 pm 22:50 Cloudy 34 1 30 -1 87 87 WSW 9 15 30.03 1017 10 16 0.00 0.00
10:53 pm 22:53 Cloudy 33 0.6 30 -1.1 89 89 WSW 10 17 30.01 1016 9 14 0.00 0.00
11:53 pm 23:53 Cloudy 33 0.6 30 -1.1 89 89 WSW 10 17 30.02 1017 9 14 0.00 0.00

Powered by AerisWeather